PBO Station Position Time Series. Reference Frame : NAM14
Format Version,1.1.0
4-character ID,P409
Station name,VernoniaAPOR2005
Begin Date, 2005-07-02
End Date, 2019-10-07
Release Date, 2019-10-08
Reference position, 45.8512936617 North Latitude, -123.2394777361 East Longitude, 177.30262 meters elevation,
Date, North (mm), East (mm), Vertical (mm), North Std. Deviation (mm), East Std. Deviation (mm),              Vertical Std. Deviation (mm), Quality,
2005-07-02,0.00, 0.00, 0.00, 2.23, 1.55, 7.02, repro,
2005-07-03,-1.14, 0.43, -2.82, 2.25, 1.55, 7.06, repro,
2005-07-04,0.13, 0.08, 0.64, 2.24, 1.56, 7.03, repro,
2005-07-05,0.34, 0.56, -5.97, 2.30, 1.60, 7.24, repro,
2005-07-06,-0.55, -1.11, -2.86, 2.24, 1.55, 7.08, repro,
2005-07-07,-0.41, -0.42, 2.81, 2.31, 1.59, 7.17, repro,
2005-07-08,-1.67, -1.57, 7.07, 2.23, 1.57, 7.10, repro,
2005-07-09,-0.28, -0.38, 1.73, 2.24, 1.57, 7.11, repro,
2005-07-10,-1.09, 1.26, 8.08, 2.29, 1.62, 7.24, repro,
2005-07-11,-1.75, -0.58, 4.36, 2.25, 1.56, 7.06, repro,
2005-07-12,0.02, -0.84, -3.09, 2.25, 1.57, 7.11, repro,
2005-07-13,1.81, 0.78, -0.92, 2.23, 1.57, 7.07, repro,
2005-07-14,1.53, 0.56, 0.02, 2.26, 1.61, 7.29, repro,
2005-07-15,-0.00, 0.30, 2.87, 2.25, 1.55, 7.07, repro,
2005-07-16,1.35, 0.87, -2.66, 2.25, 1.56, 7.09, repro,
2005-07-17,0.72, 1.74, -3.22, 2.25, 1.57, 7.11, repro,
2005-07-18,0.07, 1.12, 1.57, 2.26, 1.57, 7.17, repro,
2005-07-19,1.08, -1.09, 1.98, 2.22, 1.57, 7.10, repro,
2005-07-20,1.00, 0.97, 3.13, 2.23, 1.56, 7.13, repro,
2005-07-21,0.47, 0.35, 2.70, 2.31, 1.62, 7.30, repro,
2005-07-22,1.16, -1.45, 4.65, 2.29, 1.60, 7.32, repro,
2005-07-23,2.62, 0.44, -3.15, 2.25, 1.56, 7.11, repro,
2005-07-24,1.87, 0.93, 3.69, 2.28, 1.60, 7.31, repro,
2005-07-25,0.25, 0.08, 3.95, 2.26, 1.60, 7.31, repro,
2005-07-26,0.72, 0.66, 4.13, 2.29, 1.65, 7.51, repro,
2005-07-27,1.37, 1.21, 1.37, 2.34, 1.65, 7.44, repro,
2005-07-28,0.55, 1.65, -4.79, 2.33, 1.65, 7.42, repro,
2005-07-29,1.46, 1.45, 0.12, 2.27, 1.60, 7.32, repro,
2005-07-30,0.40, 1.00, 2.61, 2.27, 1.60, 7.34, repro,
2005-07-31,0.88, 1.67, 4.26, 2.29, 1.61, 7.40, repro,
2005-08-01,1.19, 1.16, 2.58, 2.29, 1.60, 7.35, repro,
2005-08-02,-0.05, 0.69, 0.53, 2.29, 1.60, 7.30, repro,
2005-08-03,1.31, 0.76, 8.80, 2.22, 1.56, 7.01, repro,
2005-08-04,0.58, 2.28, 3.40, 2.24, 1.56, 7.10, repro,
2005-08-05,1.55, 1.04, -2.44, 2.26, 1.58, 7.24, repro,
2005-08-06,0.53, 0.86, 3.55, 2.25, 1.56, 7.11, repro,
2005-08-07,-0.10, 1.06, -7.52, 2.26, 1.56, 7.10, repro,
2005-08-08,3.12, -0.19, -3.76, 2.24, 1.56, 7.06, repro,
2005-08-09,1.44, 0.03, 3.55, 2.24, 1.57, 7.13, repro,
2005-08-10,0.42, 0.88, 3.71, 2.25, 1.58, 7.21, repro,
2005-08-11,1.43, 1.81, -1.14, 2.30, 1.63, 7.33, repro,
2005-08-12,1.01, 2.59, 0.19, 2.29, 1.63, 7.28, repro,
2005-08-13,1.16, 0.54, 1.24, 2.24, 1.56, 7.10, repro,
2005-08-14,1.01, 1.04, 0.65, 2.35, 1.69, 7.43, repro,
2005-08-15,-1.05, -0.30, 6.17, 2.29, 1.62, 7.30, repro,
2005-08-16,2.77, -0.30, -1.33, 2.32, 1.63, 7.36, repro,
2005-08-17,0.60, 0.50, 5.04, 2.33, 1.65, 7.44, repro,
2005-08-18,1.01, 0.24, 4.75, 2.26, 1.57, 7.16, repro,
2005-08-19,0.09, -0.05, 1.85, 2.23, 1.56, 7.09, repro,
2005-08-20,-0.19, 0.72, 3.07, 2.25, 1.57, 7.14, repro,
2005-08-21,-0.49, 1.72, 2.27, 2.24, 1.57, 7.14, repro,
2005-08-22,0.65, 0.42, -0.80, 2.26, 1.58, 7.21, repro,
2005-08-23,2.44, -1.46, 1.96, 2.26, 1.57, 7.16, repro,
2005-08-24,0.67, 0.78, 5.20, 2.25, 1.56, 7.15, repro,
2005-08-25,1.63, 0.36, 4.04, 2.25, 1.56, 7.08, repro,
2005-08-26,-0.26, 0.59, 7.02, 2.24, 1.58, 7.14, repro,
2005-08-27,2.10, 0.88, 7.58, 2.25, 1.58, 7.18, repro,
2005-08-28,0.51, 0.74, 2.25, 2.25, 1.57, 7.15, repro,
2005-08-29,0.94, -0.75, 6.12, 2.26, 1.58, 7.22, repro,
2005-08-30,1.20, 1.03, 3.83, 2.23, 1.56, 7.07, repro,
2005-08-31,1.50, 0.90, -0.84, 2.23, 1.56, 7.08, repro,
2005-09-01,1.79, 1.03, 5.88, 2.26, 1.56, 7.12, repro,
2005-09-02,0.63, 1.30, 8.48, 2.24, 1.56, 7.14, repro,
2005-09-03,-0.79, -0.41, 7.36, 2.25, 1.58, 7.13, repro,
2005-09-04,0.86, -1.55, 9.66, 2.28, 1.60, 7.27, repro,
2005-09-05,1.19, 0.69, 5.22, 2.23, 1.56, 7.08, repro,
2005-09-06,2.84, -0.16, 1.89, 2.23, 1.55, 7.07, repro,
2005-09-07,0.37, 1.50, 3.31, 2.36, 1.58, 7.27, repro,
2005-09-08,1.19, 0.32, 6.04, 2.33, 1.58, 7.23, repro,
2005-09-09,2.60, -2.48, 10.25, 2.31, 1.57, 7.18, repro,
2005-09-10,-0.68, -0.01, 2.06, 2.32, 1.57, 7.17, repro,
2005-09-11,1.55, -0.14, 7.79, 2.30, 1.58, 7.16, repro,
2005-09-12,0.03, 0.28, 5.02, 2.31, 1.57, 7.18, repro,
2005-09-13,0.78, 0.11, 5.85, 2.45, 1.67, 7.59, repro,
2005-09-14,-0.30, 0.01, 7.23, 2.35, 1.62, 7.37, repro,
2005-09-15,2.83, -0.16, 3.33, 2.36, 1.62, 7.37, repro,
2005-09-16,0.23, 0.68, 5.04, 2.34, 1.62, 7.34, repro,
2005-09-17,2.36, -0.18, 1.62, 2.21, 1.54, 7.02, repro,
2005-09-18,1.68, -1.05, 9.15, 2.24, 1.56, 7.15, repro,
2005-09-19,0.98, -0.27, 5.65, 2.31, 1.58, 7.35, repro,
2005-09-20,2.06, -0.15, 2.45, 2.24, 1.55, 7.12, repro,
2005-09-21,1.21, 0.26, -0.08, 2.27, 1.58, 7.29, repro,
2005-09-22,2.71, -1.19, -0.72, 2.21, 1.55, 7.07, repro,
2005-09-23,2.03, -0.45, 0.87, 2.26, 1.56, 7.15, repro,
2005-09-24,1.68, -0.03, 6.00, 2.30, 1.61, 7.32, repro,
2005-09-25,1.59, 0.95, 7.14, 2.28, 1.59, 7.26, repro,
2005-09-26,1.83, -0.05, 6.43, 2.27, 1.60, 7.25, repro,
2005-09-27,0.01, 0.58, 5.92, 2.29, 1.60, 7.27, repro,
2005-09-28,0.16, -0.48, 10.21, 2.32, 1.58, 7.25, repro,
2005-09-29,1.01, -0.26, 19.14, 2.32, 1.59, 7.24, repro,
2005-09-30,-1.61, 0.89, 14.13, 2.26, 1.58, 7.20, repro,
2005-10-01,1.22, 0.90, 13.90, 2.26, 1.56, 7.20, repro,
2005-10-02,-0.67, -1.33, 3.07, 2.27, 1.60, 7.22, repro,
2005-10-03,1.18, -0.51, 7.22, 2.28, 1.59, 7.20, repro,
2005-10-04,1.46, 0.63, 2.73, 2.32, 1.59, 7.31, repro,
2005-10-05,0.92, 1.02, -1.69, 2.27, 1.56, 7.12, repro,
2005-10-06,0.38, 0.55, 1.53, 2.25, 1.56, 7.15, repro,
2005-10-07,-0.49, -0.58, 7.78, 2.29, 1.57, 7.14, repro,
2005-10-08,0.33, -0.48, 9.55, 2.24, 1.55, 7.00, repro,
2005-10-09,1.04, -0.23, 5.89, 2.27, 1.57, 7.10, repro,
2005-10-10,-0.03, 0.22, 0.64, 2.27, 1.57, 7.10, repro,
2005-10-11,0.48, -0.07, 6.30, 2.31, 1.62, 7.25, repro,
2005-10-12,0.14, 0.59, 2.19, 2.31, 1.62, 7.27, repro,
2005-10-13,0.23, -0.18, 6.57, 2.28, 1.61, 7.26, repro,
2005-10-14,1.64, -1.24, 10.62, 2.27, 1.57, 7.14, repro,
2005-10-15,-1.54, -0.82, 5.19, 2.28, 1.57, 7.14, repro,
2005-10-16,1.14, 1.06, 6.29, 2.34, 1.59, 7.44, repro,
2005-10-17,0.31, -0.51, 8.74, 2.27, 1.59, 7.14, repro,
2005-10-18,1.89, 0.31, 8.47, 2.38, 1.69, 7.52, repro,
2005-10-19,1.03, 0.46, 7.97, 2.30, 1.62, 7.30, repro,
2005-10-20,0.38, -0.49, 0.79, 2.34, 1.60, 7.23, repro,
2005-10-21,0.86, 0.53, 7.51, 2.35, 1.64, 7.48, repro,
2005-10-22,1.64, 0.36, 2.73, 2.26, 1.56, 7.05, repro,
2005-10-23,2.38, 0.09, 4.62, 2.31, 1.62, 7.28, repro,
2005-10-24,1.12, 0.54, 2.28, 2.31, 1.62, 7.25, repro,
2005-10-25,0.69, 0.02, 8.48, 2.32, 1.63, 7.35, repro,
2005-10-26,1.12, 0.07, 5.61, 2.37, 1.68, 7.51, repro,
2005-10-27,1.83, -0.34, 3.35, 2.30, 1.60, 7.25, repro,
2005-10-28,0.98, -2.10, 2.60, 2.27, 1.58, 7.11, repro,
2005-10-29,0.28, 0.47, 4.31, 2.29, 1.63, 7.35, repro,
2005-10-30,1.82, 0.05, -0.92, 2.31, 1.61, 7.28, repro,
2005-10-31,1.33, -0.10, 2.95, 2.43, 1.70, 7.70, repro,
2005-11-01,2.73, -0.75, 4.96, 2.47, 1.76, 7.92, repro,
2005-11-02,1.00, -0.66, 3.22, 2.49, 1.79, 7.89, repro,
2005-11-03,1.70, -0.58, 6.22, 2.32, 1.63, 7.27, repro,
2005-11-04,2.89, -0.27, 7.13, 2.38, 1.67, 7.49, repro,
2005-11-05,1.45, 0.99, 2.85, 2.43, 1.75, 7.71, repro,
2005-11-06,2.85, 0.05, 5.74, 2.36, 1.69, 7.44, repro,
2005-11-07,3.19, -0.01, -4.03, 2.42, 1.74, 7.67, repro,
2005-11-08,1.74, 0.05, -7.76, 2.41, 1.72, 7.63, repro,
2005-11-09,2.20, 1.19, 0.00, 2.47, 1.82, 7.98, repro,
2005-11-10,1.18, 1.25, -0.81, 2.57, 1.83, 8.13, repro,
2005-11-11,1.52, -0.27, 0.30, 2.46, 1.70, 7.79, repro,
2005-11-12,0.96, 0.64, 8.42, 2.27, 1.63, 7.21, repro,
2005-11-13,-0.13, 2.07, -2.23, 2.40, 1.68, 7.57, repro,
2005-11-14,3.19, 0.42, -3.72, 2.36, 1.67, 7.47, repro,
2005-11-15,1.59, 1.47, -13.01, 2.26, 1.57, 7.15, repro,
2005-11-16,2.33, 0.32, -12.55, 2.31, 1.61, 7.29, repro,
2005-11-17,2.50, 0.13, -9.35, 2.25, 1.57, 7.13, repro,
2005-11-18,1.53, 0.65, -8.52, 2.26, 1.57, 7.15, repro,
2005-11-19,1.62, 0.34, -6.14, 2.27, 1.58, 7.18, repro,
2005-11-20,0.67, 1.57, -6.93, 2.36, 1.65, 7.53, repro,
2005-11-21,0.13, 1.26, -3.22, 2.44, 1.66, 7.59, repro,
2005-11-22,1.37, 0.75, -3.50, 2.35, 1.67, 7.49, repro,
2005-11-23,1.59, 0.69, 3.18, 2.33, 1.65, 7.45, repro,
2005-11-24,0.94, 0.82, 1.68, 2.25, 1.58, 7.17, repro,
2005-11-25,0.88, 0.74, 3.62, 2.28, 1.61, 7.27, repro,
2005-11-26,-1.18, 0.85, -1.23, 2.37, 1.68, 7.59, repro,
2005-11-27,1.24, 1.02, -2.05, 2.32, 1.65, 7.43, repro,
2005-11-28,1.84, 0.55, -2.35, 2.36, 1.66, 7.55, repro,
2005-11-29,-0.85, -0.71, -2.65, 2.35, 1.62, 7.36, repro,
2005-11-30,2.09, -0.40, -9.11, 2.28, 1.60, 7.22, repro,
2005-12-01,1.15, -0.01, -3.92, 2.26, 1.59, 7.16, repro,
2005-12-02,-0.09, -0.06, -2.88, 2.27, 1.60, 7.22, repro,
2005-12-03,1.07, 0.38, -2.05, 2.26, 1.58, 7.15, repro,
2005-12-04,1.27, 0.66, -9.01, 2.24, 1.55, 7.05, repro,
2005-12-05,1.86, 0.21, -12.36, 2.27, 1.59, 7.16, repro,
2005-12-06,0.19, 0.91, -11.08, 2.25, 1.57, 7.12, repro,
2005-12-07,-0.20, 1.02, -7.28, 2.30, 1.63, 7.34, repro,
2005-12-08,-0.59, 0.57, -4.15, 2.30, 1.63, 7.34, repro,
2005-12-09,0.22, 0.36, -0.17, 2.28, 1.58, 7.18, repro,
2005-12-10,-1.30, 0.77, -5.10, 2.28, 1.58, 7.16, repro,
2005-12-11,-0.37, -0.01, -2.37, 2.26, 1.57, 7.14, repro,
2005-12-12,-0.17, -0.22, -2.35, 2.25, 1.57, 7.13, repro,
2005-12-13,-0.47, -0.13, -2.55, 2.26, 1.56, 7.12, repro,
2005-12-14,-0.42, -0.47, -9.09, 2.27, 1.58, 7.17, repro,
2005-12-15,0.24, -0.10, -8.66, 2.35, 1.60, 7.35, repro,
2005-12-16,0.15, 0.09, -1.84, 2.26, 1.56, 7.11, repro,
2005-12-17,-1.21, -0.56, -1.82, 2.33, 1.64, 7.34, repro,
2005-12-18,0.01, -0.84, -0.86, 2.23, 1.61, 7.13, repro,
2005-12-19,0.67, 0.17, -7.67, 2.45, 1.75, 7.74, repro,
2005-12-20,-1.48, -2.13, -4.75, 2.33, 1.68, 7.36, repro,
2005-12-21,-0.91, -0.02, -1.65, 2.32, 1.67, 7.34, repro,
2005-12-22,2.02, -0.30, -4.49, 2.34, 1.69, 7.39, repro,
2005-12-23,-1.29, -0.75, 1.32, 2.38, 1.70, 7.49, repro,
2005-12-24,-1.38, -2.43, -5.20, 2.46, 1.80, 8.01, repro,
2005-12-25,0.62, 0.07, 4.02, 2.31, 1.65, 7.29, repro,
2005-12-26,-1.66, -2.19, 2.78, 2.29, 1.59, 7.10, repro,
2005-12-27,-1.72, -2.44, -1.07, 2.32, 1.65, 7.31, repro,
2005-12-28,-2.57, -1.06, 1.13, 2.27, 1.61, 7.11, repro,
2005-12-29,-4.01, -0.14, 1.78, 2.39, 1.73, 7.68, repro,
2005-12-30,-3.31, -0.57, 2.89, 2.44, 1.77, 7.94, repro,
2005-12-31,-2.81, -1.68, 7.51, 2.43, 1.74, 7.74, repro,
2006-01-02,-2.66, -1.68, 3.76, 2.41, 1.70, 7.42, repro,
2006-01-03,-4.17, -1.13, -0.17, 2.50, 1.86, 8.10, repro,
2006-01-04,-3.06, -1.15, -9.42, 2.42, 1.83, 7.85, repro,
2006-01-05,-3.44, -0.29, -11.47, 2.36, 1.73, 7.62, repro,
2006-01-06,-2.89, -0.46, 1.28, 2.42, 1.75, 7.79, repro,
2006-01-07,-2.45, -1.92, 0.07, 2.29, 1.61, 7.13, repro,
2006-01-08,-2.59, 0.16, -1.70, 2.34, 1.72, 7.53, repro,
2006-01-09,-2.89, -2.26, 2.02, 2.43, 1.83, 7.85, repro,
2006-01-10,-1.64, -0.30, 6.55, 2.40, 1.78, 7.75, repro,
2006-01-11,-1.80, -0.95, 5.06, 2.38, 1.73, 7.56, repro,
2006-01-12,-3.02, -1.05, -3.67, 2.38, 1.73, 7.44, repro,
2006-01-13,-2.07, -0.79, 4.07, 2.44, 1.78, 7.99, repro,
2006-01-14,-0.77, 0.25, -0.96, 2.34, 1.66, 7.36, repro,
2006-01-15,-1.70, 0.59, 1.17, 2.27, 1.61, 7.13, repro,
2006-01-16,-3.33, -0.44, -4.50, 2.39, 1.78, 7.70, repro,
2006-01-17,-0.63, 0.47, 3.79, 2.32, 1.65, 7.24, repro,
2006-01-18,-2.11, -0.04, 0.70, 2.29, 1.59, 7.13, repro,
2006-01-19,-2.36, -0.10, -3.80, 2.34, 1.62, 7.35, repro,
2006-01-20,-1.85, 0.09, -5.82, 2.32, 1.61, 7.28, repro,
2006-01-21,-1.83, 0.00, -0.31, 2.28, 1.58, 7.04, repro,
2006-01-22,-2.90, 0.11, -4.94, 2.26, 1.57, 7.02, repro,
2006-01-23,-2.73, 0.51, -5.58, 2.27, 1.56, 7.04, repro,
2006-01-24,-1.66, 0.37, -8.04, 2.32, 1.62, 7.19, repro,
2006-01-25,-1.03, -0.98, -3.01, 2.22, 1.55, 6.98, repro,
2006-01-26,-3.68, -0.94, -4.50, 2.22, 1.54, 6.96, repro,
2006-01-27,-2.44, -0.21, -11.01, 2.21, 1.53, 6.90, repro,
2006-01-28,-1.79, -0.23, -9.76, 2.22, 1.54, 6.96, repro,
2006-01-29,-3.62, 0.12, -1.67, 2.21, 1.53, 6.92, repro,
2006-01-30,-0.69, 1.38, 3.89, 2.24, 1.55, 7.04, repro,
2006-01-31,-1.12, -0.03, 1.60, 2.22, 1.55, 7.01, repro,
2006-02-01,-3.02, 0.26, 5.69, 2.23, 1.53, 6.94, repro,
2006-02-02,-3.55, -0.95, 0.24, 2.23, 1.54, 6.96, repro,
2006-02-03,-3.26, -0.48, 0.82, 2.22, 1.53, 6.97, repro,
2006-02-04,-2.18, 2.40, 1.88, 2.22, 1.54, 7.04, repro,
2006-02-05,-2.61, 0.47, -7.38, 2.24, 1.54, 7.05, repro,
2006-02-06,-2.93, 1.06, -4.23, 2.24, 1.54, 7.04, repro,
2006-02-07,-3.17, 0.73, -9.74, 2.22, 1.53, 6.96, repro,
2006-02-08,-2.15, 0.69, -12.43, 2.22, 1.52, 6.98, repro,
2006-02-09,-2.65, 0.57, -12.64, 2.30, 1.54, 7.09, repro,
2006-02-10,-2.75, 0.98, -10.74, 2.39, 1.58, 7.24, repro,
2006-02-11,-2.03, 0.98, -12.53, 2.23, 1.53, 7.02, repro,
2006-02-12,-1.69, 0.72, -14.68, 2.22, 1.52, 6.98, repro,
2006-02-13,-1.54, 0.76, -7.39, 2.22, 1.52, 6.94, repro,
2006-02-14,-2.58, 0.82, -6.11, 2.22, 1.50, 6.96, repro,
2006-02-15,-1.22, 1.03, -5.02, 2.23, 1.52, 7.00, repro,
2006-02-16,-1.93, 0.96, -9.28, 2.24, 1.55, 7.12, repro,
2006-02-17,-1.02, 1.19, -6.26, 2.26, 1.54, 7.09, repro,
2006-02-18,-2.36, 0.96, -9.55, 2.25, 1.52, 6.97, repro,
2006-02-19,-1.11, 1.41, -9.17, 2.24, 1.52, 6.98, repro,
2006-02-20,-1.92, 0.63, -2.77, 2.24, 1.52, 6.99, repro,
2006-02-21,-2.75, 0.15, -7.05, 2.26, 1.54, 7.09, repro,
2006-02-22,-2.87, 0.62, -0.15, 2.26, 1.55, 7.09, repro,
2006-02-23,-1.61, 1.57, -2.52, 2.24, 1.53, 7.02, repro,
2006-02-24,-1.64, 0.47, -6.26, 2.23, 1.53, 7.00, repro,
2006-02-25,-2.22, 0.66, -8.40, 2.23, 1.52, 6.96, repro,
2006-02-26,-2.88, 0.36, 3.02, 2.24, 1.53, 7.03, repro,
2006-02-27,-2.06, -0.66, 6.65, 2.24, 1.54, 7.04, repro,
2006-02-28,-3.45, 0.80, 7.76, 2.30, 1.56, 7.17, repro,
2006-03-01,-4.13, -0.28, 0.36, 2.35, 1.59, 7.31, repro,
2006-03-02,-1.78, -0.51, -1.56, 2.20, 1.52, 6.94, repro,
2006-03-03,-0.87, 0.41, -2.85, 2.31, 1.55, 7.24, repro,
2006-03-04,-1.81, -0.42, -1.92, 2.22, 1.53, 6.96, repro,
2006-03-05,-3.11, 0.96, -0.58, 2.21, 1.54, 6.99, repro,
2006-03-06,-1.97, 0.95, -5.89, 2.23, 1.54, 7.05, repro,
2006-03-07,-2.85, 0.24, -1.62, 2.21, 1.53, 6.95, repro,
2006-03-08,-1.71, -0.16, -0.99, 2.22, 1.54, 7.02, repro,
2006-03-09,-0.72, -0.33, 2.56, 2.22, 1.54, 7.02, repro,
2006-03-10,-1.03, -0.67, 0.08, 2.23, 1.54, 7.02, repro,
2006-03-11,-1.45, -0.48, 0.73, 2.29, 1.57, 7.17, repro,
2006-03-12,-2.51, -0.64, -7.78, 2.28, 1.55, 7.12, repro,
2006-03-13,-2.06, 0.66, -5.91, 2.27, 1.55, 7.09, repro,
2006-03-14,-1.16, 0.15, 0.56, 2.27, 1.56, 7.17, repro,
2006-03-15,-2.86, -0.29, -5.04, 2.27, 1.57, 7.15, repro,
2006-03-16,-1.82, -1.28, -1.21, 2.33, 1.60, 7.33, repro,
2006-03-17,-2.21, -0.24, -7.15, 2.36, 1.60, 7.38, repro,
2006-03-18,-1.86, -0.27, -6.52, 2.27, 1.56, 7.14, repro,
2006-03-19,-0.95, 0.64, -8.29, 2.27, 1.58, 7.28, repro,
2006-03-20,-1.90, 0.65, -5.52, 2.26, 1.57, 7.19, repro,
2006-03-21,-2.30, -0.46, -1.18, 2.26, 1.57, 7.15, repro,
2006-03-22,-3.04, -1.33, -7.73, 2.28, 1.58, 7.19, repro,
2006-03-23,-1.77, 0.33, -13.15, 2.34, 1.61, 7.28, repro,
2006-03-24,-3.09, -0.98, 1.27, 2.36, 1.60, 7.26, repro,
2006-03-25,-1.29, 0.30, -2.02, 2.31, 1.59, 7.22, repro,
2006-03-26,-1.41, 0.94, -0.74, 2.30, 1.59, 7.19, repro,
2006-03-27,-2.89, -0.72, -1.94, 2.32, 1.60, 7.20, repro,
2006-03-28,-1.97, -0.08, 3.15, 2.25, 1.58, 7.06, repro,
2006-03-29,-2.04, 0.25, 4.14, 2.20, 1.55, 6.97, repro,
2006-03-30,-2.29, -0.03, 1.05, 2.20, 1.55, 7.00, repro,
2006-03-31,-1.74, 0.18, -0.05, 2.18, 1.55, 6.97, repro,
2006-04-01,-3.03, 1.18, -0.45, 2.19, 1.56, 6.99, repro,
2006-04-02,-1.22, -0.31, -7.59, 2.20, 1.55, 7.01, repro,
2006-04-03,-2.97, -0.56, -1.13, 2.18, 1.56, 6.98, repro,
2006-04-04,-2.30, 0.06, -5.33, 2.19, 1.55, 6.99, repro,
2006-04-05,-2.15, 0.07, 3.07, 2.22, 1.60, 7.18, repro,
2006-04-06,-1.60, -0.75, -4.58, 2.23, 1.60, 7.24, repro,
2006-04-07,-2.32, 0.57, -6.18, 2.31, 1.60, 7.31, repro,
2006-04-08,-3.08, -0.48, -3.20, 2.26, 1.56, 7.09, repro,
2006-04-09,-2.12, -0.55, -4.04, 2.19, 1.56, 7.02, repro,
2006-04-10,-2.00, -0.26, 1.23, 2.19, 1.55, 7.01, repro,
2006-04-11,-1.53, 0.66, -0.16, 2.24, 1.58, 7.24, repro,
2006-04-12,-3.08, 0.31, -3.82, 2.26, 1.59, 7.27, repro,
2006-04-13,-4.07, -0.28, -3.93, 2.20, 1.55, 7.04, repro,
2006-04-14,-2.19, 0.46, 0.45, 2.18, 1.55, 7.01, repro,
2006-04-15,-1.03, 0.05, 13.42, 2.29, 1.65, 7.40, repro,
2006-04-16,0.98, 0.73, -3.09, 2.20, 1.56, 7.07, repro,
2006-04-17,-1.54, 0.29, -0.23, 2.19, 1.55, 7.04, repro,
2006-04-18,-1.84, -0.22, -10.41, 2.19, 1.55, 7.00, repro,
2006-04-19,-0.30, 1.28, -4.95, 2.20, 1.55, 7.07, repro,
2006-04-20,-2.22, 0.44, 0.77, 2.23, 1.59, 7.18, repro,
2006-04-21,-1.38, 1.10, -6.04, 2.19, 1.55, 7.07, repro,
2006-04-22,-2.02, 0.86, -6.48, 2.17, 1.55, 7.00, repro,
2006-04-23,0.19, 1.36, -8.73, 2.22, 1.59, 7.17, repro,
2006-04-24,0.01, 0.42, -6.53, 2.24, 1.60, 7.21, repro,
2006-04-25,-1.57, 0.95, -3.74, 2.23, 1.59, 7.15, repro,
2006-04-26,-1.35, 0.76, -2.41, 2.24, 1.58, 7.20, repro,
2006-04-27,-1.15, 0.77, -6.14, 2.29, 1.61, 7.30, repro,
2006-04-28,-1.74, 0.30, -6.06, 2.24, 1.56, 7.10, repro,
2006-04-29,-0.64, 0.05, -3.75, 2.20, 1.55, 7.09, repro,
2006-04-30,-0.48, 1.12, -2.98, 2.19, 1.55, 7.06, repro,
2006-05-01,-1.31, 0.87, -11.27, 2.19, 1.54, 7.01, repro,
2006-05-02,-1.41, 1.37, -7.37, 2.19, 1.55, 7.08, repro,
2006-05-03,-0.95, 0.52, -3.34, 2.17, 1.54, 7.02, repro,
2006-05-04,-1.60, 1.01, -8.09, 2.19, 1.55, 7.04, repro,
2006-05-05,-1.55, -0.06, -4.33, 2.20, 1.54, 7.00, repro,
2006-05-06,-0.90, -1.25, -3.38, 2.19, 1.54, 7.01, repro,
2006-05-07,-1.41, 0.36, -0.20, 2.19, 1.54, 7.03, repro,
2006-05-08,-0.37, 0.73, -2.59, 2.18, 1.54, 7.03, repro,
2006-05-09,-1.01, 0.49, -7.32, 2.25, 1.58, 7.14, repro,
2006-05-10,-1.47, -0.28, -5.94, 2.19, 1.55, 7.07, repro,
2006-05-11,-2.95, -1.73, 2.83, 2.21, 1.56, 7.11, repro,
2006-05-12,-0.66, -0.39, -3.34, 2.19, 1.54, 7.03, repro,
2006-05-13,-1.40, -0.39, -6.67, 2.19, 1.55, 7.08, repro,
2006-05-14,-1.24, -0.76, -8.74, 2.19, 1.56, 7.10, repro,
2006-05-15,-1.25, 0.78, -10.38, 2.20, 1.56, 7.12, repro,
2006-05-16,-1.40, -0.37, -6.16, 2.20, 1.58, 7.22, repro,
2006-05-17,-1.45, 0.17, -0.20, 2.21, 1.57, 7.21, repro,
2006-05-18,-1.39, 0.05, 0.74, 2.19, 1.55, 7.03, repro,
2006-05-19,-1.77, -0.85, -0.89, 2.26, 1.58, 7.22, repro,
2006-05-20,-1.27, 0.03, -0.58, 2.27, 1.57, 7.17, repro,
2006-05-21,-1.01, -0.22, 2.38, 2.32, 1.64, 7.48, repro,
2006-05-22,-3.31, -1.09, 9.47, 2.28, 1.62, 7.36, repro,
2006-05-23,-1.48, -1.30, 5.22, 2.28, 1.58, 7.19, repro,
2006-05-24,-2.10, -0.59, -10.43, 2.28, 1.58, 7.27, repro,
2006-05-25,-1.80, -0.26, -6.95, 2.31, 1.62, 7.40, repro,
2006-05-26,-1.14, -0.99, -5.07, 2.30, 1.62, 7.36, repro,
2006-05-27,-0.84, -0.09, 0.16, 2.25, 1.58, 7.17, repro,
2006-05-28,-1.22, -0.47, 2.85, 2.27, 1.58, 7.20, repro,
2006-05-29,-0.75, 0.08, -1.53, 2.25, 1.58, 7.18, repro,
2006-05-30,-0.57, -0.33, -6.74, 2.31, 1.61, 7.37, repro,
2006-05-31,-0.24, -0.19, -3.26, 2.29, 1.59, 7.28, repro,
2006-06-01,-1.40, -0.96, -8.22, 2.30, 1.62, 7.36, repro,
2006-06-02,-1.53, -1.34, 1.69, 2.40, 1.64, 7.54, repro,
2006-06-03,-1.75, 0.25, 1.46, 2.37, 1.63, 7.45, repro,
2006-06-04,-3.95, -1.57, 3.62, 2.31, 1.61, 7.35, repro,
2006-06-05,-1.48, -0.12, -4.47, 2.34, 1.63, 7.44, repro,
2006-06-06,-1.87, -0.40, 2.02, 2.34, 1.62, 7.37, repro,
2006-06-07,-1.75, -0.02, 0.01, 2.34, 1.60, 7.36, repro,
2006-06-08,-0.61, -0.14, -4.12, 2.25, 1.57, 7.14, repro,
2006-06-09,-0.25, 0.11, -5.89, 2.27, 1.58, 7.18, repro,
2006-06-10,-0.31, -0.66, -3.95, 2.26, 1.58, 7.19, repro,
2006-06-11,-2.34, -0.63, -2.57, 2.25, 1.59, 7.16, repro,
2006-06-12,0.13, 0.19, -0.82, 2.31, 1.60, 7.29, repro,
2006-06-13,-1.00, -0.90, -0.43, 2.32, 1.60, 7.30, repro,
2006-06-14,-0.64, -0.43, 1.14, 2.27, 1.57, 7.14, repro,
2006-06-15,-1.67, -1.06, 2.28, 2.26, 1.59, 7.21, repro,
2006-06-16,-0.99, -1.72, 6.80, 2.26, 1.60, 7.25, repro,
2006-06-17,-2.66, 0.05, 4.03, 2.25, 1.58, 7.14, repro,
2006-06-18,-2.81, 0.05, 1.41, 2.30, 1.63, 7.41, repro,
2006-06-19,-1.04, -0.06, -3.92, 2.29, 1.62, 7.33, repro,
2006-06-20,-1.15, -0.07, -0.75, 2.30, 1.63, 7.36, repro,
2006-06-21,-1.27, 0.22, -1.98, 2.29, 1.64, 7.43, repro,
2006-06-22,-1.25, -0.78, -7.02, 2.27, 1.63, 7.37, repro,
2006-06-23,0.25, -0.00, -10.73, 2.35, 1.67, 7.51, repro,
2006-06-24,-0.42, 1.06, -5.39, 2.28, 1.62, 7.31, repro,
2006-06-25,-0.23, -0.30, -9.42, 2.28, 1.64, 7.37, repro,
2006-06-26,-0.35, 0.16, -2.96, 2.30, 1.64, 7.43, repro,
2006-07-12,18.70, 7.89, 13.24, 31.70, 10.57, 43.76, repro,
2006-07-13,-1.15, -0.35, 4.46, 2.25, 1.60, 7.42, repro,
2006-07-14,-0.38, -0.55, 2.07, 2.26, 1.60, 7.39, repro,
2006-07-15,-0.56, -0.29, -0.61, 2.24, 1.58, 7.30, repro,
2006-07-16,-0.43, -0.88, -1.66, 2.24, 1.57, 7.22, repro,
2006-07-17,1.12, -0.89, 0.32, 2.28, 1.64, 7.54, repro,
2006-07-18,-2.44, -0.20, 1.42, 2.18, 1.56, 7.11, repro,
2006-07-19,-0.28, -0.44, -1.03, 2.18, 1.56, 7.11, repro,
2006-07-20,-0.46, 0.17, 1.89, 2.20, 1.55, 7.07, repro,
2006-07-21,0.52, -0.41, -3.13, 2.19, 1.56, 7.07, repro,
2006-07-22,-0.63, -0.57, 0.98, 2.20, 1.56, 7.13, repro,
2006-07-23,0.69, 0.54, 4.56, 2.19, 1.56, 7.13, repro,
2006-07-24,-0.13, -0.25, 2.72, 2.18, 1.57, 7.10, repro,
2006-07-25,0.58, -0.10, 2.68, 2.19, 1.56, 7.11, repro,
2006-07-26,-0.09, 0.04, 4.04, 2.19, 1.55, 7.05, repro,
2006-07-27,0.11, -0.22, -0.98, 2.18, 1.54, 7.02, repro,
2006-07-28,-0.85, 1.42, 5.54, 2.17, 1.56, 7.06, repro,
2006-07-29,0.15, -0.33, 4.69, 2.18, 1.56, 7.09, repro,
2006-07-30,0.30, -0.57, 7.62, 2.23, 1.61, 7.26, repro,
2006-07-31,-0.58, 0.00, 6.90, 2.19, 1.55, 7.08, repro,
2006-08-01,-0.45, -1.21, 8.49, 2.18, 1.55, 7.06, repro,
2006-08-02,-0.13, -0.27, 1.61, 2.23, 1.61, 7.35, repro,
2006-08-03,0.89, 0.44, -0.45, 2.19, 1.62, 7.31, repro,
2006-08-04,-0.70, -0.32, 2.11, 2.27, 1.65, 7.45, repro,
2006-08-05,-0.60, -0.21, 6.58, 2.23, 1.61, 7.37, repro,
2006-08-06,-0.24, -0.49, 3.23, 2.23, 1.61, 7.32, repro,
2006-08-07,0.57, -0.42, 1.08, 2.24, 1.61, 7.36, repro,
2006-08-08,-1.51, -0.95, 5.09, 2.18, 1.56, 7.08, repro,
2006-08-09,-0.10, -0.02, 8.62, 2.17, 1.56, 7.08, repro,
2006-08-10,-0.54, -1.20, 2.50, 2.20, 1.56, 7.11, repro,
2006-08-11,0.01, 0.36, 5.98, 2.19, 1.56, 7.09, repro,
2006-08-12,-0.59, 0.43, 4.57, 2.18, 1.55, 7.05, repro,
2006-08-13,-0.32, -0.02, 6.93, 2.20, 1.57, 7.15, repro,
2006-08-14,-0.56, -0.94, 2.92, 2.18, 1.56, 7.08, repro,
2006-08-15,-0.22, 0.53, 6.63, 2.25, 1.59, 7.20, repro,
2006-08-16,-0.98, 0.25, 5.32, 2.18, 1.56, 7.07, repro,
2006-08-17,-0.74, -0.88, 3.10, 2.17, 1.56, 7.05, repro,
2006-08-18,-0.21, 0.68, 5.61, 2.23, 1.61, 7.27, repro,
2006-08-19,-0.04, -0.49, 0.77, 2.16, 1.56, 7.08, repro,
2006-08-20,-0.84, -0.28, 11.45, 2.17, 1.57, 7.06, repro,
2006-08-21,-0.76, 0.21, 8.89, 2.20, 1.57, 7.13, repro,
2006-08-22,-0.97, -0.49, 8.76, 2.20, 1.59, 7.18, repro,
2006-08-23,-0.01, -1.06, 7.71, 2.20, 1.58, 7.13, repro,
2006-08-24,-0.67, -1.14, 6.65, 2.20, 1.58, 7.16, repro,
2006-08-25,0.23, -0.00, 8.66, 2.23, 1.62, 7.33, repro,
2006-08-26,-2.21, -0.08, 4.02, 2.27, 1.65, 7.50, repro,
2006-08-27,-0.50, -0.44, 5.70, 2.28, 1.68, 7.56, repro,
2006-08-28,-0.09, -0.88, 0.87, 2.28, 1.68, 7.60, repro,
2006-08-29,1.33, -1.84, 5.03, 2.28, 1.68, 7.60, repro,
2006-08-30,-0.27, -0.68, 7.43, 2.27, 1.67, 7.55, repro,
2006-08-31,0.60, -0.36, 4.91, 2.26, 1.67, 7.49, repro,
2006-09-01,-0.29, -0.60, 7.03, 2.27, 1.67, 7.52, repro,
2006-09-02,0.57, -0.44, 3.44, 2.27, 1.68, 7.54, repro,
2006-09-03,-0.41, -1.55, 2.05, 2.27, 1.69, 7.61, repro,
2006-09-04,0.97, -0.46, 3.48, 2.35, 1.70, 7.77, repro,
2006-09-05,0.42, -0.23, 1.04, 2.35, 1.69, 7.65, repro,
2006-09-06,1.46, -1.15, 1.70, 2.28, 1.67, 7.55, repro,
2006-09-07,0.86, -0.61, 8.77, 2.33, 1.73, 7.90, repro,
2006-09-08,-0.05, -0.30, 6.20, 2.31, 1.72, 7.82, repro,
2006-09-09,-2.12, -2.03, 10.11, 2.30, 1.68, 7.61, repro,
2006-09-10,-0.87, -0.76, 9.55, 2.23, 1.62, 7.33, repro,
2006-09-11,-0.44, -1.67, 8.80, 2.26, 1.63, 7.36, repro,
2006-09-12,0.16, -1.53, 3.87, 2.25, 1.64, 7.37, repro,
2006-09-13,1.91, -1.22, 6.97, 2.25, 1.63, 7.35, repro,